Plainview, TX

4:02 AM CDT on July 24, 2017 (GMT -0500)
Hale County

Weather History for KPVW - December, 2012

Change the Weather History Date:

Sunday, December 2, 2012

  Actual Average Record
Temperature  
Mean Temperature 55 °F -  
Max Temperature 77 °F 55 °F 80 °F (2005)
Min Temperature 33 °F 28 °F 8 °F (1985)
Degree Days  
Heating Degree Days 10    
Growing Degree Days 5 (Base 50)    
Moisture  
Dew Point 21 °F    
Average Humidity 33    
Maximum Humidity 56    
Minimum Humidity 11    
Precipitation  
Precipitation 0.00 in - - ()
Sea Level Pressure  
Sea Level Pressure 30.00 in    
Wind  
Wind Speed 8 mph (SW)    
Max Wind Speed 18 mph    
Max Gust Speed 26 mph    
Visibility 10 miles    
Events      
Averages and records for this station are not official NWS values.
T = Trace of Precipitation, MM = Missing Value Source: NWS Daily Summary

Daily Weather History Graph

Daily Weather History Graph

Search for Another Location

Airport or City:

Trip Planner

Search our weather history database for the weather conditions in past years. The results will help you decide how hot, cold, wet, or windy it might be!

Date:

Astronomy

Dec. 02, 2012 Rise Set
Actual Time 7:35 AM CST 5:37 PM CST
Civil Twilight 7:08 AM CST 6:04 PM CST
Nautical Twilight 6:37 AM CST 6:35 PM CST
Astronomical Twilight 6:07 AM CST 7:05 PM CST
Moon 9:22 PM CST (12/2) 10:30 AM CST (12/2)
Length of Visible Light 10h 56m
Length of Day
10h 01m
Waning Gibbous, 85% of the Moon is Illuminated
Dec 2
Waning Gibbous
Dec 6
Last Quarter
Dec 13
New
Dec 19
First Quarter
Dec 28
Full

Hourly Weather History & Observations

Time (CST) Temp. Windchill Dew Point Humidity Pressure Visibility Wind Dir Wind Speed Gust Speed Precip Events Conditions
12:15 AM 42.8 °F 41.1 °F 19.4 °F 39% 30.04 in 10.0 mi WNW 3.5 mph - N/A   Clear
12:35 AM 41.0 °F 38.0 °F 19.4 °F 42% 30.04 in 10.0 mi West 4.6 mph - N/A   Clear
12:55 AM 39.2 °F - 19.4 °F 45% 30.04 in 10.0 mi Calm Calm - N/A   Clear
1:15 AM 39.2 °F 35.0 °F 19.4 °F 45% 30.04 in 10.0 mi West 5.8 mph - N/A   Clear
1:35 AM 39.2 °F 33.0 °F 19.4 °F 45% 30.04 in 10.0 mi SW 9.2 mph - N/A   Clear
1:55 AM 39.2 °F - 19.4 °F 45% 30.04 in 10.0 mi Calm Calm - N/A   Clear
2:15 AM 39.2 °F 35.9 °F 21.2 °F 49% 30.04 in 10.0 mi West 4.6 mph - N/A   Clear
2:35 AM 39.2 °F 35.9 °F 19.4 °F 45% 30.04 in 10.0 mi WSW 4.6 mph - N/A   Clear
2:55 AM 39.2 °F 34.2 °F 21.2 °F 49% 30.04 in 10.0 mi West 6.9 mph - N/A   Clear
3:15 AM 35.6 °F 28.0 °F 21.2 °F 56% 30.04 in 10.0 mi West 10.4 mph - N/A   Clear
3:35 AM 35.6 °F 29.9 °F 21.2 °F 56% 30.03 in 10.0 mi West 6.9 mph - N/A   Clear
3:55 AM 37.4 °F 33.8 °F 21.2 °F 52% 30.04 in 10.0 mi WSW 4.6 mph - N/A   Clear
4:15 AM 37.4 °F 33.8 °F 19.4 °F 48% 30.04 in 10.0 mi SW 4.6 mph - N/A   Clear
4:35 AM 37.4 °F 32.8 °F 21.2 °F 52% 30.03 in 10.0 mi SW 5.8 mph - N/A   Clear
4:55 AM 35.6 °F 29.2 °F 21.2 °F 56% 30.03 in 10.0 mi WSW 8.1 mph - N/A   Clear
5:15 AM 35.6 °F 29.2 °F 21.2 °F 56% 30.03 in 10.0 mi WSW 8.1 mph - N/A   Clear
5:35 AM 35.6 °F 29.9 °F 21.2 °F 56% 30.04 in 10.0 mi West 6.9 mph - N/A   Clear
5:55 AM 35.6 °F 31.7 °F 21.2 °F 56% 30.04 in 10.0 mi SW 4.6 mph - N/A   Clear
6:15 AM 33.8 °F 29.6 °F 19.4 °F 56% 30.04 in 10.0 mi WSW 4.6 mph - N/A   Clear
6:35 AM 35.6 °F - 19.4 °F 52% 30.05 in 10.0 mi Calm Calm - N/A   Clear
6:55 AM 35.6 °F 30.7 °F 19.4 °F 52% 30.05 in 10.0 mi SW 5.8 mph - N/A   Clear
7:15 AM 33.8 °F 28.6 °F 19.4 °F 56% 30.06 in 10.0 mi WSW 5.8 mph - N/A   Clear
7:35 AM 33.8 °F 28.6 °F 19.4 °F 56% 30.06 in 10.0 mi WSW 5.8 mph - N/A   Clear
7:55 AM 33.8 °F 29.6 °F 19.4 °F 56% 30.06 in 10.0 mi SW 4.6 mph - N/A   Clear
8:15 AM 37.4 °F 32.1 °F 21.2 °F 52% 30.06 in 10.0 mi WSW 6.9 mph - N/A   Clear
8:35 AM 41.0 °F 37.1 °F 21.2 °F 45% 30.06 in 10.0 mi SW 5.8 mph - N/A   Clear
8:55 AM 44.6 °F 41.4 °F 21.2 °F 39% 30.06 in 10.0 mi SW 5.8 mph - N/A   Clear
9:15 AM 50.0 °F - 24.8 °F 37% 30.06 in 10.0 mi SW 6.9 mph - N/A   Clear
9:35 AM 51.8 °F - 24.8 °F 35% 30.06 in 10.0 mi WSW 9.2 mph - N/A   Clear
9:55 AM 53.6 °F - 24.8 °F 33% 30.07 in 10.0 mi WSW 9.2 mph - N/A   Clear
10:15 AM 55.4 °F - 24.8 °F 31% 30.07 in 10.0 mi SW 9.2 mph - N/A   Clear
10:35 AM 59.0 °F - 26.6 °F 29% 30.07 in 10.0 mi WSW 10.4 mph - N/A   Clear
10:55 AM 62.6 °F - 26.6 °F 26% 30.07 in 10.0 mi SW 10.4 mph - N/A   Clear
11:15 AM 64.4 °F - 26.6 °F 24% 30.06 in 10.0 mi SW 10.4 mph - N/A   Clear
11:35 AM 69.8 °F - 28.4 °F 21% 30.06 in 10.0 mi SW 9.2 mph - N/A   Clear
11:55 AM 69.8 °F - 24.8 °F 18% 30.05 in 10.0 mi SW 10.4 mph - N/A   Clear
12:15 PM 71.6 °F - 24.8 °F 17% 30.04 in 10.0 mi SW 11.5 mph 17.3 mph N/A   Clear
12:35 PM 73.4 °F - 24.8 °F 16% 30.03 in 10.0 mi SW 12.7 mph - N/A   Clear
12:55 PM 73.4 °F - 23.0 °F 15% 30.01 in 10.0 mi SW 11.5 mph 19.6 mph N/A   Clear
1:15 PM 73.4 °F - 19.4 °F 13% 30.00 in 10.0 mi SW 18.4 mph 23.0 mph N/A   Clear
1:35 PM 77.0 °F - 19.4 °F 12% 29.99 in 10.0 mi SSW 13.8 mph 21.9 mph N/A   Clear
1:55 PM 77.0 °F - 17.6 °F 11% 29.98 in 10.0 mi SSW 18.4 mph 24.2 mph N/A   Clear
2:15 PM 77.0 °F - 19.4 °F 12% 29.97 in 10.0 mi SSW 17.3 mph 23.0 mph N/A   Clear
2:35 PM 77.0 °F - 17.6 °F 11% 29.96 in 10.0 mi SSW 16.1 mph 26.5 mph N/A   Clear
2:55 PM 77.0 °F - 17.6 °F 11% 29.97 in 10.0 mi SSW 17.3 mph 23.0 mph N/A   Clear
3:15 PM 77.0 °F - 19.4 °F 12% 29.96 in 10.0 mi SSW 16.1 mph 21.9 mph N/A   Clear
3:35 PM 77.0 °F - 17.6 °F 11% 29.96 in 10.0 mi SSW 16.1 mph 20.7 mph N/A   Clear
3:55 PM 75.2 °F - 15.8 °F 11% 29.95 in 10.0 mi SSW 15.0 mph - N/A   Clear
4:15 PM 73.4 °F - 15.8 °F 11% 29.95 in 10.0 mi SW 13.8 mph - N/A   Clear
4:35 PM 73.4 °F - 17.6 °F 12% 29.95 in 10.0 mi SSW 15.0 mph - N/A   Clear
4:55 PM 73.4 °F - 19.4 °F 13% 29.95 in 10.0 mi SSW 12.7 mph 20.7 mph N/A   Clear
5:15 PM 69.8 °F - 17.6 °F 14% 29.95 in 10.0 mi SSW 10.4 mph - N/A   Clear
5:35 PM 68.0 °F - 19.4 °F 16% 29.94 in 10.0 mi SSW 9.2 mph - N/A   Clear
5:55 PM 62.6 °F - 19.4 °F 19% 29.94 in 10.0 mi SSW 9.2 mph - N/A   Clear
6:15 PM 62.6 °F - 19.4 °F 19% 29.94 in 10.0 mi SSW 10.4 mph - N/A   Clear
6:35 PM 60.8 °F - 19.4 °F 20% 29.94 in 10.0 mi SSW 9.2 mph - N/A   Clear
6:55 PM 60.8 °F - 19.4 °F 20% 29.93 in 10.0 mi SSW 10.4 mph - N/A   Clear
7:15 PM 57.2 °F - 19.4 °F 23% 29.94 in 10.0 mi SSW 8.1 mph - N/A   Clear
7:35 PM 55.4 °F - 19.4 °F 25% 29.93 in 10.0 mi SSW 9.2 mph - N/A   Clear
7:55 PM 57.2 °F - 19.4 °F 23% 29.92 in 10.0 mi SSW 11.5 mph - N/A   Clear
8:15 PM 55.4 °F - 19.4 °F 25% 29.93 in 10.0 mi SSW 9.2 mph - N/A   Clear
8:35 PM 55.4 °F - 21.2 °F 26% 29.93 in 10.0 mi SW 9.2 mph - N/A   Clear
8:55 PM 53.6 °F - 21.2 °F 28% 29.92 in 10.0 mi SSW 8.1 mph - N/A   Clear
9:15 PM 51.8 °F - 21.2 °F 30% 29.92 in 10.0 mi SW 8.1 mph - N/A   Clear
9:35 PM 51.8 °F - 21.2 °F 30% 29.93 in 10.0 mi SW 8.1 mph - N/A   Clear
9:55 PM 53.6 °F - 23.0 °F 30% 29.93 in 10.0 mi SW 8.1 mph - N/A   Clear
10:15 PM 53.6 °F - 23.0 °F 30% 29.93 in 10.0 mi SW 9.2 mph - N/A   Clear
10:55 PM 55.4 °F - 26.6 °F 33% 29.92 in 10.0 mi SW 17.3 mph 21.9 mph N/A   Clear
11:15 PM 55.4 °F - 26.6 °F 33% 29.92 in 10.0 mi SW 13.8 mph - N/A   Clear
11:35 PM 59.0 °F - 30.2 °F 34% 29.92 in 10.0 mi SW 16.1 mph 23.0 mph N/A   Clear
11:55 PM 55.4 °F - 28.4 °F 36% 29.92 in 10.0 mi SW 15.0 mph - N/A   Clear